Wind_Speed
15 15 14 15 16 12 9 8 7 8 7 7 7 7 7 7 7 7 8 9 9 8 8 9 8 8 7 7 7 7 7 6 7 7 7 7 6 6 5 5 5 6 6 6 6 6 6 6 5
15 14 16 16 12 8 8 7 7 7 7 7 7 7 8 8 7 8 8 9 9 9 8 8 8 7 7 7 7 7 6 6 6 6 6 6 6 5 5 5 5 5 5 6 6 6 6 5 5
15 15 16 12 9 8 8 8 7 6 6 7 7 7 8 8 8 8 8 8 9 8 8 8 8 7 7 7 6 6 6 5 5 5 5 5 5 5 5 5 5 5 5 5 5 5 5 5 5
15 17 15 10 8 9 8 8 7 6 6 6 7 6 7 8 8 8 8 8 8 8 8 8 7 7 7 6 6 5 5 5 5 4 4 5 5 4 4 4 4 4 4 4 5 5 5 4 4
17 16 11 8 8 8 8 8 8 6 6 6 7 6 7 8 8 8 8 8 8 8 8 8 7 7 7 6 6 5 5 5 5 4 4 4 4 4 4 4 4 4 4 4 4 4 4 4 4
16 12 8 8 8 8 8 8 8 8 7 6 7 6 6 7 7 7 8 8 8 8 8 7 7 7 7 6 6 5 5 5 4 4 3 4 3 3 4 4 4 4 4 3 3 4 4 4 4
12 8 7 7 8 8 8 8 8 7 7 7 7 7 7 7 7 7 8 8 8 8 8 8 7 7 7 6 6 5 5 4 4 3 3 3 3 2 3 3 3 4 4 3 4 5 5 5 4
10 7 6 6 6 7 8 8 8 8 7 7 7 7 7 7 8 8 8 8 8 8 9 8 7 6 6 6 6 5 5 4 4 3 3 2 2 2 1 2 2 3 3 3 4 5 5 5 4
9 7 5 5 6 6 7 7 8 8 8 8 8 8 8 8 9 9 9 8 8 8 9 8 8 7 7 6 6 6 5 5 4 3 3 3 3 2 1 1 2 2 2 3 3 4 4 3 3
6 4 4 5 6 6 6 7 8 7 7 8 8 8 8 8 9 9 9 9 9 9 9 9 9 8 8 7 7 6 6 5 4 4 4 3 3 2 2 2 2 1 1 2 2 2 2 2 2
5 4 4 5 6 5 5 7 8 8 7 8 9 9 8 8 8 9 10 10 9 9 10 10 10 10 9 9 8 7 6 6 5 5 4 4 3 3 1 1 1 1 1 1 1 2 1 1 2
5 4 5 5 5 6 6 7 7 8 8 8 9 9 8 9 9 9 10 10 10 10 10 11 11 11 11 10 9 8 7 7 6 5 4 4 4 3 1 0 0 1 1 2 1 1 0 0 0
4 3 4 5 5 6 6 7 7 8 7 8 9 9 10 9 9 10 10 10 10 11 11 11 11 11 11 11 10 9 8 7 6 6 6 5 4 2 1 1 0 0 0 1 1 1 1 1 1
3 2 4 4 5 5 5 6 7 7 8 8 9 9 10 10 10 10 10 11 11 11 11 11 11 11 11 11 10 10 9 8 7 7 7 6 5 3 3 2 1 1 0 0 1 1 1 1 1
3 2 4 4 5 5 6 6 7 8 8 8 9 10 10 10 11 10 10 10 10 11 11 11 11 11 11 10 10 9 9 9 8 7 7 6 5 4 3 4 3 2 1 1 1 1 1 2 2
3 1 2 3 4 4 5 6 7 7 7 8 8 9 10 10 11 11 10 10 10 11 11 10 10 11 11 11 10 9 9 9 10 9 8 7 6 5 5 5 5 4 3 2 2 2 2 2 2
1 0 1 2 4 4 4 6 7 6 6 7 8 8 9 10 11 11 11 10 10 10 10 10 11 11 11 11 11 10 10 9 10 10 10 9 9 7 6 6 5 4 4 3 3 3 3 3 3
2 2 2 2 2 4 4 6 7 6 6 7 8 8 8 9 10 11 11 11 11 10 10 10 10 10 11 11 11 10 11 10 10 11 11 10 10 8 7 7 6 5 5 5 4 4 4 4 4
6 5 5 4 2 3 5 5 6 6 5 6 7 7 8 8 8 9 10 10 10 10 10 10 10 10 10 10 11 11 11 11 11 11 12 11 10 9 8 8 7 6 6 6 5 5 5 5 5
9 8 6 5 3 3 5 5 5 6 6 5 6 7 7 7 8 8 9 9 9 10 10 9 10 9 10 10 11 12 12 12 12 12 11 11 10 10 9 9 8 7 7 7 6 6 6 5 5
11 9 8 7 6 6 6 7 6 7 7 6 6 6 7 7 7 7 8 8 8 8 9 9 10 10 10 10 11 11 12 12 13 13 13 12 11 11 10 10 9 8 7 7 7 6 6 6 5
12 10 11 9 7 6 6 8 9 9 8 7 6 6 7 7 7 7 7 7 7 8 8 10 10 10 10 10 10 11 11 12 13 13 13 12 11 12 12 11 10 9 8 7 7 7 7 7 7
15 12 11 10 8 8 8 9 10 11 10 8 8 7 8 7 7 7 7 7 7 7 8 9 9 9 9 9 10 10 11 11 12 13 13 13 12 12 12 12 11 10 9 8 8 8 7 7 7
17 14 13 12 11 12 11 10 12 13 11 9 9 8 8 8 7 7 6 6 7 8 8 9 9 9 9 9 10 10 11 11 12 13 13 13 13 13 13 12 12 11 10 9 8 8 8 8 8
19 16 15 14 13 12 10 11 13 13 12 11 11 10 8 8 7 7 6 6 6 8 9 9 9 9 9 9 10 10 11 11 12 13 13 13 13 13 13 13 12 11 11 10 9 9 9 10 10
20 17 16 13 11 11 10 12 12 13 13 12 12 11 9 8 7 7 6 7 7 8 9 9 9 9 9 10 10 10 11 11 12 12 13 14 14 14 14 14 13 13 12 11 10 10 11 11 11
20 19 17 15 13 14 13 13 14 16 13 13 14 12 12 10 9 8 7 7 8 8 9 10 9 9 10 10 11 11 11 11 13 13 14 14 14 15 15 14 14 14 13 13 12 12 12 12 12
21 20 18 19 18 17 14 14 15 16 16 14 14 13 13 11 10 9 8 7 8 8 9 10 10 10 11 11 11 11 11 11 13 14 15 15 15 15 16 15 14 14 14 14 14 14 14 14 13
22 21 21 20 19 17 15 17 17 17 18 16 14 13 14 12 11 10 9 9 9 9 10 11 10 11 11 11 11 12 12 13 13 14 15 16 16 16 16 16 16 15 15 15 15 14 14 14 14
23 23 21 22 22 19 17 17 18 18 18 18 17 17 16 14 13 13 12 11 11 11 11 11 11 11 11 12 12 12 13 14 14 15 16 16 16 16 16 16 16 16 16 15 15 15 15 15 14
Wind_Direction
72 72 70 66 65 62 61 61 57 61 65 64 63 59 56 54 53 51 58 63 63 61 64 64 64 63 65 68 73 75 79 83 86 88 86 87 88 92 100 103 107 107 106 109 111 111 116 113 108
73 72 63 61 62 58 57 56 55 57 60 59 58 56 55 50 50 52 59 59 58 57 58 59 57 58 60 66 71 72 75 79 85 88 87 87 88 95 92 98 102 106 107 113 115 116 121 118 114
73 68 63 58 49 50 49 51 51 55 55 55 56 53 53 50 50 52 55 57 56 56 55 51 50 50 53 62 66 67 71 76 80 84 85 84 84 87 89 88 96 99 102 108 115 116 120 115 110
75 64 59 49 40 43 43 44 41 46 50 51 54 49 51 50 51 55 55 55 55 53 49 43 44 42 50 59 60 61 65 71 74 77 79 80 80 79 78 83 93 96 96 103 114 111 111 109 111
71 65 54 39 36 39 44 43 39 46 44 47 46 45 49 50 51 54 53 52 53 48 43 40 39 39 48 55 57 57 57 63 69 74 76 77 76 79 79 80 86 91 93 98 106 111 113 112 120
70 58 41 34 35 37 41 40 38 36 37 42 43 51 49 47 49 51 48 50 48 41 34 34 37 43 48 51 52 53 54 62 66 74 76 75 72 83 79 77 81 88 95 102 107 114 125 130 130
75 59 36 38 30 34 38 37 36 34 34 37 43 45 44 45 44 47 48 48 44 40 36 35 38 44 48 48 49 47 47 51 58 62 61 63 60 73 82 73 82 91 96 101 110 113 115 119 122
78 66 48 34 32 35 39 35 31 33 35 37 43 44 43 41 44 48 48 46 44 40 38 38 38 41 43 42 41 41 40 39 44 47 47 54 51 63 89 85 86 90 90 99 114 118 116 117 118
72 61 45 32 36 41 39 36 32 36 37 41 45 47 45 46 46 45 46 44 42 39 39 40 36 38 41 37 35 37 38 37 36 35 45 44 42 55 57 86 101 91 80 98 116 123 123 124 122
66 66 57 35 36 43 37 36 38 39 41 42 45 49 49 49 47 44 44 42 39 38 39 37 35 33 31 31 30 30 34 34 34 33 34 30 30 43 49 86 101 92 101 110 131 135 126 126 128
69 60 63 48 42 39 35 37 37 37 40 39 42 47 48 46 45 43 44 43 41 37 34 33 34 32 31 27 25 26 32 33 36 33 31 17 13 17 5 83 113 122 132 134 147 140 117 125 135
76 56 56 53 40 38 34 34 37 35 32 34 40 43 41 40 42 40 40 41 40 36 31 31 32 30 28 29 30 34 34 33 33 30 28 11 9 10 345 310 175 145 156 177 179 146 171 199 190
71 67 64 53 42 39 33 34 33 38 38 36 40 41 44 43 41 39 37 37 36 33 30 31 31 30 31 33 35 39 40 36 32 31 21 17 14 18 13 15 76 12 267 219 224 274 262 253 231
99 86 77 64 53 42 34 33 30 39 41 42 41 42 41 38 38 36 34 34 32 33 33 30 31 32 33 35 38 41 40 33 35 30 26 23 23 20 26 27 18 350 322 287 313 287 253 252 241
133 129 87 69 48 43 40 33 32 40 35 34 32 34 35 35 36 35 32 29 28 30 31 32 32 33 33 33 34 38 38 39 39 33 27 26 32 35 47 39 34 25 6 334 329 319 297 273 255
133 111 56 36 32 31 31 31 26 33 33 29 29 31 32 31 32 31 28 27 27 28 31 33 32 34 36 39 42 39 38 37 35 32 29 33 41 43 39 38 30 34 24 354 326 314 304 288 275
177 88 359 5 16 18 7 15 19 27 32 32 32 33 32 28 28 28 28 29 29 28 29 31 34 36 37 39 42 43 41 39 41 39 40 42 40 38 35 27 20 15 12 5 352 342 321 301 288
212 199 272 319 360 4 355 4 17 23 25 26 25 31 30 26 24 26 29 30 29 28 27 28 32 34 35 38 39 44 43 41 37 32 31 30 29 29 24 18 9 359 358 357 353 347 328 311 296
212 219 241 255 293 330 331 351 7 7 6 14 13 16 19 19 22 24 25 27 29 28 26 26 28 30 34 36 37 38 34 32 28 23 23 22 20 18 13 9 6 2 1 358 349 346 334 316 300
213 222 236 251 254 263 293 319 337 349 343 349 355 358 5 13 19 19 22 20 22 27 27 25 23 22 27 30 30 29 27 25 22 19 18 17 14 9 4 4 3 5 3 355 350 347 340 328 314
218 217 222 237 255 264 288 301 322 321 325 329 337 341 347 359 9 13 15 17 21 22 21 21 21 23 20 22 24 26 24 21 19 18 17 16 14 9 6 3 1 357 357 352 348 341 339 338 325
220 220 223 228 250 268 278 291 302 307 308 313 314 322 334 347 353 1 7 12 14 13 14 15 17 19 18 18 19 19 18 17 16 16 18 15 12 9 5 0 356 352 349 345 341 339 331 327 322
215 216 227 229 237 253 261 270 287 297 306 312 309 314 323 330 340 351 0 4 3 3 4 7 11 13 13 12 13 14 13 14 14 13 13 11 10 6 2 1 359 353 348 342 336 332 327 321 314
217 216 223 229 232 238 250 252 263 281 290 300 300 307 313 319 322 334 343 346 354 358 359 358 3 5 5 5 7 7 7 7 7 8 7 6 5 2 360 359 358 355 350 341 333 328 321 319 313
218 219 232 233 236 240 250 254 264 272 277 284 290 295 300 308 312 323 331 335 345 351 352 353 357 358 360 360 360 359 359 1 2 2 1 0 359 358 357 356 353 351 347 342 334 327 321 316 313
221 219 228 228 236 251 253 257 263 269 272 276 281 284 287 292 300 309 317 324 333 339 342 344 348 351 352 353 351 349 351 354 357 357 356 356 355 354 354 352 350 346 342 339 335 328 322 316 312
221 221 223 232 238 250 252 260 266 268 270 271 272 275 277 278 287 298 304 310 318 325 331 335 338 343 344 344 345 344 344 347 350 351 350 349 348 348 348 347 348 347 343 338 334 332 327 320 313
221 221 220 227 233 241 249 255 256 265 274 273 269 270 273 277 282 289 291 297 303 312 319 323 327 330 332 333 337 339 339 341 343 344 344 343 343 343 343 343 341 342 340 336 334 330 327 324 318
222 220 220 224 230 240 247 248 250 255 266 272 274 272 273 276 282 286 283 283 289 300 309 314 317 321 322 324 327 333 336 336 336 337 339 340 339 338 340 340 339 337 337 335 333 331 328 326 323
222 221 222 226 227 231 242 255 261 260 261 264 269 271 274 275 277 279 280 280 283 291 297 305 309 312 316 319 321 325 330 330 329 330 333 334 333 333 333 334 333 333 331 329 330 329 326 325 323
Height
5896 5895 5894 5892 5893 5894 5894 5893 5892 5890 5890 5889 5888 5887 5886 5885 5885 5886 5883 5881 5881 5880 5880 5880 5879 5879 5878 5878 5878 5878 5877 5877 5877 5877 5877 5877 5876 5876 5876 5876 5876 5877 5877 5878 5879 5879 5880 5880 5881
5899 5898 5895 5896 5897 5897 5896 5895 5894 5893 5892 5890 5889 5889 5888 5887 5886 5885 5883 5883 5883 5882 5882 5881 5881 5880 5880 5879 5879 5879 5879 5878 5878 5878 5878 5878 5878 5878 5878 5878 5878 5878 5879 5879 5879 5880 5881 5881 5882
5901 5899 5898 5900 5900 5899 5898 5897 5896 5894 5893 5892 5892 5891 5890 5888 5887 5885 5885 5885 5885 5884 5883 5883 5882 5882 5881 5881 5881 5880 5880 5880 5880 5879 5879 5879 5879 5879 5879 5879 5879 5879 5880 5880 5880 5881 5881 5882 5883
5903 5902 5903 5904 5902 5901 5900 5899 5898 5897 5895 5894 5894 5893 5891 5890 5888 5887 5887 5886 5886 5886 5885 5884 5884 5883 5883 5882 5882 5882 5882 5881 5881 5881 5880 5880 5880 5880 5880 5880 5880 5880 5880 5881 5881 5882 5882 5883 5883
5904 5905 5907 5906 5904 5903 5903 5901 5900 5899 5897 5896 5895 5894 5892 5892 5890 5889 5889 5888 5888 5887 5887 5886 5885 5885 5884 5884 5883 5883 5883 5883 5882 5882 5881 5881 5881 5881 5881 5881 5881 5881 5881 5882 5882 5882 5883 5883 5884
5907 5909 5910 5908 5906 5906 5904 5903 5902 5901 5899 5898 5897 5896 5894 5894 5892 5892 5890 5890 5889 5889 5888 5887 5886 5886 5885 5885 5885 5884 5884 5884 5883 5883 5883 5882 5882 5882 5882 5882 5882 5882 5882 5883 5883 5883 5884 5884 5885
5911 5911 5910 5909 5908 5907 5906 5905 5904 5902 5901 5900 5899 5898 5896 5895 5894 5893 5892 5891 5891 5890 5889 5888 5887 5887 5886 5886 5886 5885 5885 5885 5884 5884 5884 5883 5883 5883 5883 5883 5883 5883 5883 5883 5884 5884 5884 5885 5885
5913 5913 5912 5911 5910 5909 5908 5907 5905 5904 5903 5902 5901 5899 5898 5897 5896 5895 5894 5893 5892 5892 5891 5890 5889 5888 5888 5887 5887 5886 5886 5885 5885 5885 5884 5884 5884 5884 5884 5884 5884 5884 5884 5884 5884 5885 5885 5885 5886
5915 5916 5914 5913 5912 5911 5910 5909 5907 5906 5905 5903 5902 5901 5900 5899 5897 5897 5896 5895 5894 5893 5892 5891 5890 5889 5889 5888 5887 5887 5886 5886 5886 5885 5885 5885 5885 5884 5884 5884 5884 5885 5885 5885 5885 5886 5885 5886 5886
5917 5917 5917 5915 5914 5913 5911 5910 5909 5907 5906 5905 5904 5903 5902 5900 5899 5899 5898 5897 5896 5895 5894 5893 5892 5891 5890 5889 5888 5888 5887 5887 5886 5886 5886 5886 5885 5885 5885 5885 5885 5885 5885 5885 5886 5886 5886 5887 5887
5918 5918 5917 5916 5915 5914 5913 5912 5910 5909 5908 5907 5906 5905 5904 5902 5901 5900 5899 5899 5898 5897 5896 5894 5893 5892 5891 5890 5889 5888 5888 5888 5887 5887 5887 5886 5886 5885 5885 5885 5885 5885 5885 5886 5886 5887 5887 5887 5888
5920 5919 5918 5917 5917 5916 5915 5914 5912 5911 5910 5909 5908 5907 5905 5904 5903 5902 5901 5901 5900 5899 5897 5896 5895 5894 5892 5891 5890 5889 5889 5888 5888 5887 5887 5887 5886 5886 5886 5886 5885 5885 5886 5886 5887 5887 5888 5888 5888
5921 5920 5920 5919 5918 5917 5916 5915 5914 5913 5912 5910 5910 5908 5907 5906 5905 5904 5903 5902 5901 5900 5899 5898 5896 5895 5894 5892 5891 5891 5890 5889 5889 5888 5888 5887 5886 5886 5886 5886 5886 5886 5886 5887 5887 5887 5888 5888 5888
5921 5921 5921 5920 5919 5918 5918 5917 5916 5915 5913 5912 5911 5910 5909 5908 5907 5906 5905 5904 5903 5902 5901 5899 5898 5897 5896 5894 5893 5892 5891 5891 5890 5890 5889 5888 5887 5887 5887 5886 5886 5886 5886 5887 5887 5887 5887 5887 5887
5921 5922 5921 5921 5921 5920 5919 5919 5917 5916 5915 5914 5913 5912 5911 5910 5909 5908 5907 5906 5905 5904 5903 5901 5900 5899 5898 5896 5895 5894 5893 5892 5891 5891 5890 5889 5888 5887 5887 5887 5887 5887 5887 5887 5887 5887 5887 5887 5887
5921 5922 5922 5922 5922 5921 5922 5921 5919 5918 5917 5916 5915 5914 5913 5912 5910 5910 5909 5907 5906 5905 5904 5903 5902 5900 5899 5898 5897 5896 5894 5893 5892 5891 5890 5889 5889 5888 5888 5887 5887 5887 5887 5887 5887 5887 5887 5886 5887
5921 5923 5923 5923 5923 5923 5923 5922 5920 5919 5918 5917 5916 5915 5914 5913 5912 5911 5910 5909 5908 5907 5906 5904 5903 5902 5901 5900 5899 5898 5896 5895 5894 5893 5892 5890 5889 5889 5889 5888 5888 5888 5887 5887 5887 5886 5886 5886 5886
5923 5924 5925 5925 5924 5924 5923 5922 5922 5920 5919 5918 5918 5917 5916 5915 5914 5913 5912 5910 5909 5908 5907 5906 5905 5904 5903 5902 5901 5899 5898 5897 5896 5894 5893 5892 5891 5890 5889 5889 5888 5887 5887 5886 5886 5886 5885 5885 5885
5924 5925 5925 5925 5926 5925 5924 5923 5923 5922 5921 5920 5919 5919 5918 5917 5915 5914 5913 5912 5911 5909 5908 5907 5906 5905 5904 5903 5902 5901 5900 5899 5897 5896 5894 5893 5892 5891 5890 5889 5888 5887 5887 5886 5885 5885 5884 5884 5884
5922 5924 5925 5925 5925 5925 5925 5924 5923 5923 5922 5921 5920 5919 5918 5917 5916 5915 5913 5913 5912 5911 5910 5909 5907 5906 5906 5905 5904 5903 5901 5900 5899 5897 5896 5894 5892 5891 5890 5889 5888 5887 5886 5886 5885 5884 5884 5883 5883
5921 5923 5924 5924 5925 5924 5925 5924 5923 5923 5923 5922 5921 5920 5919 5918 5917 5916 5915 5914 5913 5912 5910 5909 5908 5908 5907 5906 5905 5904 5902 5901 5900 5898 5896 5895 5893 5892 5890 5889 5888 5887 5886 5885 5884 5884 5883 5883 5882
5920 5923 5923 5923 5924 5924 5925 5924 5923 5923 5922 5922 5921 5920 5919 5919 5918 5916 5915 5915 5914 5913 5912 5910 5910 5909 5908 5907 5906 5905 5903 5902 5901 5899 5897 5895 5894 5892 5891 5889 5888 5887 5886 5885 5884 5883 5883 5882 5881
5918 5921 5921 5921 5922 5924 5924 5925 5924 5922 5922 5921 5921 5920 5919 5919 5918 5917 5916 5915 5914 5913 5912 5912 5911 5910 5909 5908 5906 5905 5904 5903 5901 5900 5898 5896 5894 5892 5891 5889 5888 5886 5885 5884 5883 5883 5882 5881 5880
5915 5918 5919 5919 5920 5922 5923 5923 5923 5921 5921 5920 5920 5919 5919 5919 5918 5917 5916 5915 5914 5914 5913 5912 5911 5910 5909 5908 5907 5906 5905 5903 5902 5900 5899 5897 5895 5893 5891 5889 5888 5886 5885 5883 5882 5881 5880 5879 5878
5911 5914 5916 5917 5917 5919 5921 5921 5920 5919 5919 5919 5919 5918 5918 5918 5917 5917 5916 5915 5915 5914 5913 5912 5912 5911 5910 5909 5907 5906 5905 5904 5902 5901 5899 5897 5895 5894 5892 5889 5887 5886 5884 5882 5881 5880 5879 5878 5877
5907 5911 5914 5915 5916 5918 5918 5919 5919 5917 5918 5917 5918 5918 5917 5917 5916 5916 5916 5915 5914 5914 5913 5912 5912 5911 5910 5909 5907 5906 5905 5904 5902 5901 5899 5897 5895 5893 5891 5889 5887 5885 5883 5881 5880 5879 5877 5876 5875
5904 5907 5911 5913 5915 5916 5915 5916 5916 5915 5915 5916 5916 5916 5916 5915 5915 5915 5915 5914 5914 5913 5913 5912 5911 5911 5910 5909 5907 5906 5904 5903 5902 5900 5898 5897 5895 5893 5891 5889 5886 5884 5882 5880 5879 5877 5876 5874 5873
5900 5904 5908 5910 5911 5912 5913 5914 5913 5912 5912 5913 5913 5914 5914 5913 5914 5914 5913 5913 5913 5912 5912 5911 5910 5910 5909 5908 5907 5905 5904 5902 5901 5899 5898 5896 5894 5892 5890 5888 5886 5884 5882 5879 5878 5876 5874 5873 5871
5896 5899 5902 5906 5908 5910 5911 5912 5910 5909 5909 5909 5910 5911 5911 5911 5912 5911 5911 5911 5910 5910 5910 5910 5909 5908 5907 5906 5905 5904 5903 5901 5900 5898 5897 5895 5893 5891 5889 5886 5884 5882 5880 5878 5876 5874 5872 5871 5869
5891 5895 5899 5902 5903 5905 5907 5909 5905 5905 5906 5906 5907 5908 5908 5909 5909 5909 5909 5909 5908 5908 5908 5907 5907 5906 5905 5904 5903 5902 5901 5900 5898 5897 5895 5893 5891 5889 5887 5885 5883 5880 5878 5876 5874 5872 5870 5868 5866